Regional Weather Roundup
Issued by NWS

Home | Current Version | Previous Version | Text Only | Print | Product List | Glossary Off
Versions: 1 2 3 4 5 6 7 8 9 10 11 12 13 14 15 16 17 18 19 20 21 22 23 24 25 26 27 28 29 30 31 32 33 34 35 36 37 38 39 40 41 42 43 44 45 46 47 48 49 50

000
ASUS43 KIND 220609
RWRIN

WEATHER ROUNDUP FOR INDIANA
NATIONAL WEATHER SERVICE INDIANAPOLIS IN
200 AM EDT WED MAR 22 2017

NOTE: "FAIR" INDICATES FEW OR NO CLOUDS BELOW 12,000 FEET WITH NO
SIGNIFICANT WEATHER AND/OR OBSTRUCTIONS TO VISIBILITY.

* - STATION DOES NOT REPORT WEATHER SUCH AS PRECIPITATION OR FOG.

+ - STATION NOT QUALITY CONTROLLED BY THE NATIONAL WEATHER SERVICE.
    USE DATA WITH CAUTION...ESPECIALLY DEWPOINT AND RELATIVE
    HUMIDITY OBSERVATIONS.

INZ001>003-010>013-019-020-220700-
NORTHWEST INDIANA

CITY           SKY/WX    TMP DP  RH WIND       PRES   REMARKS
GARY /AIRPORT/ MOCLDY    33  21  61 N21G30    30.44R WCI  21
KNOX *+        CLEAR     30   1  29 N21       30.39R WCI  17
LA PORTE +     PTCLDY    29  19  66 N13G23    30.41R WCI  19
6HR MIN TEMP:  29; 6HR MAX TEMP:  35;

MICHIGAN CITY+ MOCLDY    30  19  64 N14G26    30.42R WCI  20
MONTICELLO +   CLEAR     32  25  74 N14       30.37R WCI  22
6HR MIN TEMP:  32; 6HR MAX TEMP:  41;

RENSSELAER +     N/A     32  27  80 N18G29    30.39R WCI  20
VALPARAISO     MOCLDY    31  21  66 N15G25    30.41R WCI  20
6HR MIN TEMP:  31; 6HR MAX TEMP:  36;


$$

LMZ046-743>745-220700-
SOUTHERN LAKE MICHIGAN

STATION/POSITION TIME  TEMP    WIND        PRES    WAVE
                       AIR SEA DIR/SP/G            HT
                 (UTC) (F)     (DEG/KT/KT) (MB)    (FT)
BURNS HARBOR     0540   33      30/ 24/ 34 1029.8R
MICHIGAN CITY    0540   30      10/ 34/ 37   N/A

$$

INZ004-005-014>016-021>024-220700-
NORTH CENTRAL INDIANA

CITY           SKY/WX    TMP DP  RH WIND       PRES   REMARKS
GOSHEN         CLEAR     29  13  51 N17G29    30.36R WCI  17
6HR MIN TEMP:  29; 6HR MAX TEMP:  38;

LOGANSPORT +   CLEAR     32  25  74 N10       30.36R WCI  24
PERU/GRISSOM   CLEAR     31  23  72 N8        30.33R WCI  24
6HR MIN TEMP:  31; 6HR MAX TEMP:  43;

ROCHESTER +    CLEAR     34  23  64 N13G18    30.37R WCI  25
SOUTH BEND     PTCLDY    27  14  58 N21       30.40R WCI  13
6HR MIN TEMP:  27; 6HR MAX TEMP:  35;

WARSAW +       CLEAR     30  16  55 N16G22    30.36R WCI  19

$$

INZ006>009-017-018-025>027-220700-
NORTHEAST INDIANA

CITY           SKY/WX    TMP DP  RH WIND       PRES   REMARKS
ANGOLA *+      CLEAR     27  10  50 N13       30.33R WCI  16
AUBURN +       CLEAR     32  19  59 N10G16    30.34R WCI  24
FORT WAYNE     PTCLDY    32  20  61 N13       30.32R WCI  22
6HR MIN TEMP:  32; 6HR MAX TEMP:  42;

HUNTINGTON +   CLEAR     32  19  58 N9        30.33R WCI  24
6HR MIN TEMP:  32; 6HR MAX TEMP:  40;

KENDALLVILLE + CLEAR     30  18  61 N16G22    30.33R WCI  18

$$

INZ028-029-035-036-043>045-051>053-220700-
WEST CENTRAL INDIANA

CITY           SKY/WX    TMP DP  RH WIND       PRES   REMARKS
CRAWFORDSVL +  CLEAR     32  25  74 N14       30.34R WCI  22
6HR MIN TEMP:  32; 6HR MAX TEMP:  45;

GREENCASTLE +  PTCLDY    34  25  69 N10       30.33R WCI  26
LAFAYETTE      CLEAR     32  26  78 N15       30.36R WCI  22
6HR MIN TEMP:  32; 6HR MAX TEMP:  44;

TERRE HAUTE    CLEAR     38  24  57 NE10      30.33R
6HR MIN TEMP:  37; 6HR MAX TEMP:  52;


$$

INZ030>032-037>040-046>048-054>057-064-065-220700-
CENTRAL INDIANA

CITY           SKY/WX    TMP DP  RH WIND       PRES   REMARKS
CP ATTERBURY + CLEAR     36  27  69 N7        30.31R
FRANKFORT +    CLEAR     35  27  72 N13       30.35R WCI  26
6HR MIN TEMP:  35; 6HR MAX TEMP:  47;

GREENWOOD *+   CLEAR     37  24  60 N13       30.30R
INDIANAPOLIS   PTCLDY    35  22  58 N10       30.31R WCI  27
6HR MIN TEMP:  35; 6HR MAX TEMP:  47; 6HR PCP: TRACE;

-EAGLE CREEK   PTCLDY    35  22  58 N10       30.31R WCI  27
6HR MIN TEMP:  35; 6HR MAX TEMP:  47;

KOKOMO +       CLEAR     32  24  72 N9        30.35R WCI  24
6HR MIN TEMP:  32; 6HR MAX TEMP:  43;

MARION +       CLEAR     32  23  69 N13       30.33R WCI  22
MT COMFORT *+  CLEAR     32  25  74 N12       30.31R WCI  23
SHELBYVILLE    CLEAR     36  24  62 N8        30.29R
6HR MIN TEMP:  36; 6HR MAX TEMP:  48; 6HR PCP:  0.01;

ZIONSVILLE +   CLEAR     32  26  77 N9        30.33R WCI  24
6HR MIN TEMP:  32; 6HR MAX TEMP:  45;


$$

INZ033-034-041-042-049-050-058-059-220700-
EAST CENTRAL INDIANA

CITY           SKY/WX    TMP DP  RH WIND       PRES   REMARKS
MUNCIE         CLEAR     34  24  67 N9        30.31R WCI  27
6HR MIN TEMP:  34; 6HR MAX TEMP:  47;

RICHMOND +     CLEAR     32  25  74 N12G17    30.28R WCI  23

$$

INZ060-061-067>069-081>083-085>088-220700-
SOUTHWEST INDIANA

CITY           SKY/WX    TMP DP  RH WIND       PRES   REMARKS
EVANSVILLE     CLEAR     47  34  60 N10       30.27R
6HR MIN TEMP:  47; 6HR MAX TEMP:  59;

HUNTINGBURG *+ CLEAR     45  33  63 N8        30.27R
6HR MIN TEMP:  45; 6HR MAX TEMP:  57;

WASHINGTON +   CLEAR     42  29  59 MISG      30.29R
6HR MIN TEMP:  42; 6HR MAX TEMP:  54;


$$

INZ062-063-066-070>080-084-089>092-220700-
SOUTH CENTRAL AND SOUTHEAST INDIANA

CITY           SKY/WX    TMP DP  RH WIND       PRES   REMARKS
BEDFORD +      PTCLDY    43  23  45 N9G18     30.28R
BLOOMINGTON    CLEAR     38  25  59 N12       30.30R
6HR MIN TEMP:  38; 6HR MAX TEMP:  53;

MADISON *+     PTCLDY    41  25  52 N5        30.28R
NORTH VERNON + PTCLDY    41  25  52 N12G21    30.28R
SEYMOUR +      CLEAR     41  27  56 N12G21    30.29R

$$





USA.gov is the U.S. government's official web portal to all federal, state and local government web resources and services.